Weather History for Phoenix-Mesa Gateway Airport, AZ

Change the Weather History Date:

Friday, May 4, 2012

  Actual Average Record
Temperature  
Mean Temperature 80 °F -  
Max Temperature 96 °F 87 °F 100 °F (2004)
Min Temperature 64 °F 60 °F 50 °F (2001)
Cooling Degree Days 15    
Growing Degree Days 30 (Base 50)    
Moisture  
Dew Point 31 °F    
Average Humidity 18    
Maximum Humidity 28    
Minimum Humidity 10    
Precipitation  
Precipitation 0.00 in - - ()
Sea Level Pressure  
Sea Level Pressure 29.93 in    
Wind  
Wind Speed 5 mph (ESE)    
Max Wind Speed 13 mph    
Max Gust Speed -    
Visibility 11 miles    
Events      
Averages and records for this station are not official NWS values.
T = Trace of Precipitation, MM = Missing Value Source: NWS Daily Summary

Daily Weather History Graph

Daily Weather History Graph

Search for Another Location

Airport:

Trip Planner

Search our weather history database for the weather conditions in past years. The results will help you decide how hot, cold, wet, or windy it might be!

Date:

Astronomy

May. 04, 2012 Rise Set
Actual Time 5:35 AM MST 7:11 PM MST
Civil Twilight 5:08 AM MST 7:38 PM MST
Nautical Twilight 4:36 AM MST 8:10 PM MST
Astronomical Twilight 4:02 AM MST 8:44 PM MST
Moon 5:56 PM MST (5/4) 4:14 AM MST (5/4)
Length of Visible Light 14h 30m
Length of Day
13h 36m
Waxing Gibbous, 97% of the Moon is Illuminated
May 4
Waxing Gibbous
May 5
Full
May 12
Last Quarter
May 20
New
May 28
First Quarter

Hourly Weather History & Observations

Time (MST) Temp. Dew Point Humidity Pressure Visibility Wind Dir Wind Speed Gust Speed Precip Events Conditions
12:15 AM 77.0 °F 30.2 °F 18% 29.92 in 10.0 mi SSW 5.8 mph - N/A   Clear
12:35 AM 77.0 °F 32.0 °F 19% 29.92 in 10.0 mi Calm Calm - N/A   Clear
12:55 AM 71.6 °F 32.0 °F 23% 29.92 in 10.0 mi East 4.6 mph - N/A   Clear
1:15 AM 69.8 °F 32.0 °F 25% 29.93 in 10.0 mi East 5.8 mph - N/A   Clear
1:35 AM 69.8 °F 30.2 °F 23% 29.93 in 10.0 mi East 8.1 mph - N/A   Clear
1:55 AM 69.8 °F 30.2 °F 23% 29.92 in 10.0 mi East 8.1 mph - N/A   Clear
2:15 AM 69.8 °F 28.4 °F 21% 29.92 in 10.0 mi East 8.1 mph - N/A   Clear
2:35 AM 68.0 °F 28.4 °F 23% 29.93 in 10.0 mi East 6.9 mph - N/A   Clear
2:55 AM 68.0 °F 28.4 °F 23% 29.93 in 10.0 mi East 6.9 mph - N/A   Clear
3:15 AM 68.0 °F 28.4 °F 23% 29.93 in 10.0 mi East 8.1 mph - N/A   Clear
3:35 AM 66.2 °F 28.4 °F 24% 29.93 in 10.0 mi East 8.1 mph - N/A   Clear
3:55 AM 66.2 °F 26.6 °F 23% 29.93 in 10.0 mi East 6.9 mph - N/A   Clear
4:15 AM 66.2 °F 26.6 °F 23% 29.93 in 10.0 mi ESE 6.9 mph - N/A   Clear
4:35 AM 66.2 °F 26.6 °F 23% 29.93 in 10.0 mi ESE 8.1 mph - N/A   Clear
4:55 AM 66.2 °F 26.6 °F 23% 29.93 in 10.0 mi East 5.8 mph - N/A   Clear
5:15 AM 64.4 °F 30.2 °F 28% 29.94 in 10.0 mi ESE 6.9 mph - N/A   Clear
5:47 AM 66.2 °F 26.6 °F 23% 29.95 in 35.0 mi East 6.9 mph - N/A   Partly Cloudy
6:47 AM 68.0 °F 30.2 °F 24% 29.97 in 35.0 mi ESE 5.8 mph - N/A   Clear
7:47 AM 77.0 °F 35.6 °F 22% 29.98 in 35.0 mi SE 6.9 mph - N/A   Clear
8:47 AM 82.4 °F 30.2 °F 15% 29.99 in 35.0 mi SE 10.4 mph - N/A   Clear
9:47 AM 82.4 °F 28.4 °F 14% 30.00 in 35.0 mi SE 8.1 mph - N/A   Clear
10:47 AM 87.8 °F 26.6 °F 11% 30.00 in 35.0 mi SSE 4.6 mph - N/A   Clear
11:47 AM 87.8 °F 26.6 °F 11% 29.99 in 35.0 mi Variable 3.5 mph - N/A   Clear
12:47 PM 89.6 °F 26.6 °F 10% 29.97 in 35.0 mi WSW 3.5 mph - N/A   Clear
1:47 PM 95.0 °F 30.2 °F 10% 29.96 in 35.0 mi WSW 4.6 mph - N/A   Clear
2:47 PM 96.8 °F 32.0 °F 10% 29.93 in 35.0 mi WSW 5.8 mph - N/A   Clear
3:47 PM 96.8 °F 33.8 °F 11% 29.91 in 35.0 mi West 9.2 mph - N/A   Clear
4:54 PM 96.8 °F 33.8 °F 11% 29.89 in 35.0 mi West 12.7 mph - N/A   Clear
5:47 PM 95.0 °F 32.0 °F 11% 29.88 in 35.0 mi Variable 3.5 mph - N/A   Clear
6:47 PM 93.2 °F 30.2 °F 11% 29.88 in 20.0 mi Variable 4.6 mph - N/A   Clear
7:47 PM 87.8 °F 28.4 °F 12% 29.89 in 20.0 mi Calm Calm - N/A   Clear
7:55 PM 87.8 °F 30.2 °F 13% 29.89 in 10.0 mi NNW 3.5 mph - N/A   Clear
8:15 PM 86.0 °F 30.2 °F 13% 29.90 in 10.0 mi Calm Calm - N/A   Clear
8:35 PM 86.0 °F 32.0 °F 14% 29.90 in 10.0 mi North 3.5 mph - N/A   Clear
8:47 PM 84.2 °F 32.0 °F 15% 29.90 in 20.0 mi Variable 3.5 mph - N/A   Clear
8:55 PM 82.4 °F 30.2 °F 15% 29.90 in 10.0 mi NNE 3.5 mph - N/A   Clear
9:15 PM 82.4 °F 30.2 °F 15% 29.90 in 10.0 mi Calm Calm - N/A   Clear
9:35 PM 82.4 °F 30.2 °F 15% 29.90 in 10.0 mi Calm Calm - N/A   Clear
9:55 PM 80.6 °F 32.0 °F 17% 29.91 in 10.0 mi Calm Calm - N/A   Clear
10:15 PM 77.0 °F 37.4 °F 24% 29.91 in 10.0 mi SE 4.6 mph - N/A   Clear
10:35 PM 77.0 °F 35.6 °F 22% 29.90 in 10.0 mi SSE 4.6 mph - N/A   Clear
10:55 PM 77.0 °F 35.6 °F 22% 29.90 in 10.0 mi SE 4.6 mph - N/A   Clear
11:15 PM 77.0 °F 33.8 °F 21% 29.90 in 10.0 mi SE 5.8 mph - N/A   Clear
11:35 PM 77.0 °F 35.6 °F 22% 29.90 in 10.0 mi SSE 4.6 mph - N/A   Clear
11:55 PM 77.0 °F 35.6 °F 22% 29.90 in 10.0 mi SSE 3.5 mph - N/A   Clear